User: anonymous   Login
Location: Unspecified
(0.0000°N, 0.0000°E)
Time: 20:10:18
(UTC+00:00)
Language:

Resurs 1-4 - Orbit

View from above orbital plane
View from above orbital plane
View from above satellite
View from above satellite

Ground track
Ground track

The orbit data is extracted from the following two-line orbital elements,

1 25394U 98043A   19340.75257678 -.00000042 +00000-0 +82749-6 0  9994
2 25394 098.6539 276.2541 0001305 149.1409 210.9847 14.24433179112833
Epoch (UTC): 06 December 2019 18:03:42
Eccentricity: 0.0001305
inclination: 98.6539°
perigee height: 809 km
apogee height: 811 km
right ascension of ascending node: 276.2541°
argument of perigee: 149.1409°
revolutions per day: 14.24433179
mean anomaly at epoch: 210.9847°
orbit number at epoch: 11283

The dashed part of the orbit path shows where the satellite is in the earth's shadow,  

DLR